GFSGL_con_mucape_000.txt.gz
CAPE
0 0 2 22 31 0 0 0 0 0 0 0 0 14 28 64 103 85 152 312 244 255 119 148 101 110 106 40 111 79 65 59 46 63 55 55 52 66 52 61 36 28 8
0 0 2 17 28 0 0 0 0 0 0 0 3 46 36 53 91 63 55 58 72 180 84 105 87 75 34 20 56 62 47 47 52 41 58 57 39 45 37 26 14 0 0
0 0 0 2 0 0 0 0 0 0 0 0 8 52 36 49 67 51 39 21 117 25 59 42 44 40 15 25 38 50 38 52 43 50 38 17 16 9 16 8 6 0 0
0 0 0 0 0 0 0 0 0 0 0 15 18 29 17 50 12 0 14 1 47 195 222 85 23 29 35 40 38 34 43 28 20 37 10 8 20 11 15 14 2 0 0
0 0 0 0 0 0 0 0 0 0 0 0 27 2 0 0 0 0 0 1 5 19 53 36 16 11 30 35 34 24 12 19 29 9 0 0 15 36 46 6 0 0 0
0 0 0 0 0 0 0 0 0 0 0 14 48 10 0 0 0 0 0 0 14 19 20 0 10 8 12 17 27 35 38 20 1 24 42 44 40 24 6 0 0 0 0
0 0 0 0 0 0 0 0 0 0 0 1 0 9 19 3 0 0 3 1 2 89 64 2 6 0 2 13 40 32 30 37 52 64 58 42 14 0 0 0 0 0 0
0 0 0 0 0 0 0 0 0 0 0 0 0 7 27 8 8 8 12 4 1 16 56 2 7 10 21 42 47 40 20 24 10 0 0 0 7 13 0 0 0 0 0
0 0 0 0 0 0 0 0 0 0 0 0 0 1 11 30 15 4 10 0 2 0 19 24 17 26 28 19 28 34 26 23 10 0 0 0 0 0 0 0 0 2 21
0 0 0 0 0 0 0 0 0 0 0 0 0 0 0 9 10 7 7 14 21 29 12 12 9 2 4 35 33 12 5 5 30 37 1 23 62 11 21 14 10 7 38
0 0 0 0 0 0 0 0 0 0 0 0 0 0 0 1 7 1 0 3 16 31 17 2 3 4 7 14 17 2 8 4 38 53 56 52 47 51 44 14 54 21 0
0 0 0 0 0 0 0 0 0 0 0 0 0 0 0 0 0 0 0 0 0 4 9 2 0 1 1 10 20 0 0 0 0 9 7 0 0 0 0 0 0 0 3
0 0 0 0 0 0 0 1 0 0 0 0 0 0 0 0 0 0 0 0 6 0 0 0 0 0 0 0 0 0 0 0 0 0 0 0 0 0 0 0 9 33 26
0 0 0 0 0 0 20 38 0 0 0 0 0 0 0 0 0 0 0 0 0 0 0 0 0 0 0 0 0 0 0 0 0 0 0 0 0 0 1 19 33 30 23
0 0 0 0 0 0 0 0 15 0 0 0 0 0 0 0 0 0 0 0 0 0 0 0 0 0 0 0 0 0 0 0 0 0 0 0 0 1 17 25 19 22 9
0 0 0 0 0 0 0 0 0 0 0 0 0 0 0 0 0 0 0 0 0 0 0 0 0 0 0 0 0 0 0 0 0 0 0 0 0 0 2 1 31 32 2
0 0 0 0 0 0 0 0 0 0 0 2 3 0 0 0 0 0 0 0 0 0 0 0 0 0 0 0 0 0 0 0 0 0 0 0 0 0 0 15 43 16 2
0 0 0 0 0 0 0 0 0 0 0 0 5 17 0 0 2 6 0 0 0 0 0 0 0 0 0 0 0 0 0 0 0 0 0 0 0 0 1 27 39 33 26
0 0 0 0 0 0 0 0 0 0 0 0 0 7 9 0 0 0 0 0 0 0 0 0 0 0 0 0 0 0 0 0 0 0 0 0 0 0 21 51 42 36 29
0 0 0 0 0 0 0 0 0 0 0 0 0 0 0 0 0 0 0 0 0 0 0 0 0 0 0 0 0 0 0 0 0 0 0 0 0 6 46 67 70 62 44
0 5 15 12 10 2 0 0 0 0 0 0 0 0 0 0 0 0 0 0 0 0 0 0 0 0 0 0 0 0 0 0 0 0 0 0 0 60 96 83 67 35 36
38 85 87 110 111 95 37 3 0 3 0 0 0 0 0 0 0 0 0 0 0 0 0 0 0 0 0 0 0 0 0 0 0 0 3 1 16 58 51 18 0 9 0
138 159 183 192 295 333 279 126 10 4 8 19 12 4 1 2 0 0 0 0 0 0 0 0 0 0 0 0 0 0 0 0 0 0 0 0 1 0 0 0 0 3 0
255 189 216 234 329 362 355 297 138 16 17 0 0 16 16 3 4 3 0 0 0 0 0 0 0 0 0 0 0 0 0 0 0 0 1 1 0 0 4 1 0 0 0
351 335 380 353 351 377 340 346 239 90 24 48 70 142 164 123 58 10 0 0 0 0 0 0 0 0 0 0 0 0 0 0 0 0 0 0 0 0 0 2 0 0 0
468 356 347 412 474 416 362 359 340 293 366 401 418 364 257 188 131 84 43 10 6 10 16 14 20 25 31 26 22 7 1 0 0 0 0 0 0 0 0 0 0 0 0

GFSGL_con_mucape_003.txt.gz
CAPE
32 238 396 421 107 59 73 32 0 3 20 30 62 109 164 364 560 489 303 173 206 353 593 380 357 735 684 755 769 356 394 85 106 84 85 41 30 66 66 66 82 44 43
34 10 226 437 116 58 70 24 0 0 0 27 127 129 137 269 424 382 177 235 247 212 187 160 279 563 603 674 902 615 739 87 48 72 50 9 49 43 30 61 31 21 33
0 3 421 371 300 238 60 3 2 0 4 77 206 185 205 262 359 325 268 103 129 185 288 191 329 305 488 616 602 691 620 88 93 83 42 22 19 10 25 19 9 15 0
0 0 291 207 191 88 31 30 30 53 87 274 354 193 224 197 120 201 146 120 132 136 188 214 297 217 382 326 187 356 529 120 95 31 33 14 4 1 5 1 0 1 0
0 23 125 102 22 57 53 34 98 140 194 243 311 238 228 150 53 93 89 49 203 154 238 200 243 115 42 35 216 62 206 135 9 9 0 0 7 0 0 52 29 2 0
0 26 0 0 0 57 63 118 142 190 272 344 253 190 270 68 0 0 2 29 223 313 297 208 105 30 40 21 40 33 52 62 1 0 0 2 1 88 69 50 11 0 0
0 18 0 0 1 30 45 101 112 184 313 406 374 302 366 101 0 0 0 34 148 233 327 226 85 20 69 37 16 9 32 17 19 80 278 157 143 109 54 65 3 0 0
0 8 0 0 0 15 33 60 40 102 280 296 342 397 357 59 0 2 5 29 102 48 271 271 143 198 69 94 54 96 62 67 78 163 336 321 290 195 117 27 9 23 6
0 1 0 0 0 0 30 29 0 42 112 80 120 270 286 7 3 13 32 27 44 86 130 198 162 73 12 12 50 111 133 18 8 1 5 0 12 40 6 0 0 17 25
0 0 0 0 0 15 108 1 0 50 37 0 45 227 75 7 3 13 59 143 116 124 12 2 17 11 5 28 199 155 91 0 0 0 4 1 0 21 0 39 36 99 102
0 0 0 0 22 40 74 0 0 0 0 0 0 5 43 16 5 5 11 7 94 142 79 96 17 12 33 3 0 0 47 7 34 88 43 54 2 0 0 17 72 108 68
0 0 0 0 0 2 22 0 0 0 0 0 0 0 2 10 3 0 3 10 25 32 36 14 11 14 2 0 0 2 5 36 42 53 43 34 29 23 33 21 17 21 7
0 0 0 0 0 0 17 1 0 0 0 0 0 0 0 0 4 0 0 0 2 110 39 15 0 0 0 0 0 0 0 0 5 31 4 0 0 0 0 5 7 22 17
0 0 0 0 0 0 0 10 0 0 0 0 0 0 0 0 1 9 3 10 10 1 0 0 0 0 0 0 0 0 0 0 0 1 2 0 0 0 0 0 1 48 39
0 0 0 0 0 0 4 20 44 0 0 0 0 0 0 0 0 0 6 5 3 0 0 0 0 0 0 0 0 0 0 0 0 5 0 0 0 0 0 0 36 60 53
0 0 0 0 0 0 0 0 5 35 1 0 0 0 0 0 0 0 0 0 0 0 0 0 0 0 0 0 0 0 0 0 2 0 0 0 0 0 0 6 37 36 53
0 0 0 0 0 0 0 0 13 0 0 0 0 0 0 0 0 0 0 0 0 0 0 0 0 0 0 0 0 0 0 0 0 0 0 0 0 0 0 0 13 21 70
0 0 0 0 0 0 0 0 0 9 30 24 0 0 5 0 0 0 0 0 0 0 0 0 0 0 0 0 0 0 0 0 0 0 0 0 0 0 0 1 9 37 93
0 0 0 0 0 0 0 0 0 0 0 31 24 0 0 3 0 0 10 5 0 0 0 0 0 0 0 0 0 0 0 0 0 0 0 0 0 0 0 0 1 59 77
0 0 0 0 0 0 0 0 0 0 0 0 0 0 0 0 0 0 0 0 0 0 0 0 0 0 0 0 0 0 0 0 0 0 0 0 0 0 0 0 2 33 15
0 0 0 0 0 0 0 0 0 0 0 0 0 0 0 0 0 0 0 0 0 0 0 0 0 0 0 0 0 0 0 0 0 0 0 0 0 0 0 0 2 10 0
0 0 0 0 0 0 0 0 0 0 0 0 0 0 0 0 0 0 0 0 0 0 0 0 0 0 0 0 0 0 0 0 0 0 0 0 0 1 13 3 2 0 0
42 0 2 0 0 3 0 0 0 0 0 0 0 0 0 0 0 0 0 0 0 0 0 0 0 0 0 0 0 0 0 0 0 0 0 0 0 0 0 0 1 0 0
127 97 49 25 29 59 93 77 63 30 22 12 0 6 6 8 23 7 0 0 2 0 0 0 0 0 0 0 0 0 0 0 0 0 0 0 0 0 0 0 2 0 0
163 160 121 78 96 135 202 288 272 272 168 64 21 15 3 0 0 0 9 11 0 0 0 0 0 0 0 0 0 0 0 0 0 0 0 0 0 0 0 0 11 0 0
301 221 204 212 147 136 152 244 284 311 346 242 76 3 10 34 22 44 86 64 53 30 5 0 0 0 0 0 0 0 0 1 1 0 0 0 0 0 1 0 0 0 0

GFSGL_con_mucape_006.txt.gz
CAPE
347 537 524 511 396 360 334 147 95 114 91 65 64 187 182 344 551 671 500 400 461 634 846 732 901 922 1202 827 1095 972 841 360 158 34 36 35 20 64 67 18 99 38 44
222 379 494 392 433 396 311 217 51 44 48 28 82 84 91 281 405 484 350 247 302 562 364 804 814 752 1065 1061 841 696 367 138 93 37 2 68 34 50 86 41 89 74 80
137 220 474 396 309 325 363 279 71 11 18 47 127 82 238 350 466 505 391 166 381 496 608 748 891 926 836 977 831 436 88 94 55 29 2 24 69 90 57 123 98 125 9
45 151 353 274 398 438 315 186 118 57 89 293 236 274 305 212 344 352 166 120 224 480 382 647 683 543 842 687 760 546 324 150 102 5 6 3 11 83 55 54 12 2 1
14 125 197 302 298 284 261 178 169 219 288 331 315 306 379 262 170 215 108 469 435 320 392 300 253 201 188 448 1053 319 391 184 85 0 0 0 0 39 50 47 0 0 0
12 32 66 47 139 273 303 322 318 300 324 271 241 252 345 84 2 10 81 259 491 552 491 134 149 29 22 24 91 227 243 170 22 0 2 0 0 25 46 25 3 0 1
12 7 17 35 140 234 254 295 357 431 499 387 366 350 391 64 0 0 11 157 620 627 580 418 153 27 42 20 33 39 31 11 37 43 1 2 6 146 137 218 81 32 7
2 5 7 41 215 340 374 350 452 585 678 696 575 550 458 7 0 0 15 238 507 395 335 240 317 179 120 125 91 6 33 41 66 49 16 62 455 440 475 195 199 311 116
0 10 15 12 110 147 235 578 601 657 691 567 640 618 535 28 0 2 35 53 341 294 336 300 274 258 3 25 156 124 107 0 37 55 103 147 152 135 160 4 165 69 48
0 0 37 61 46 157 348 373 677 569 423 337 581 634 123 101 3 20 34 45 288 325 336 179 35 29 23 53 341 229 182 109 33 23 56 104 124 49 0 330 98 116 187
0 0 19 135 195 363 581 423 505 273 138 335 573 552 363 58 4 5 31 417 504 209 201 92 9 2 11 21 90 501 196 199 64 105 97 230 318 105 37 182 216 315 207
0 0 0 61 83 322 628 341 210 193 279 442 665 605 470 49 2 8 1 64 90 279 252 132 1 3 2 0 6 16 25 66 197 135 69 30 65 59 61 253 375 270 149
0 0 0 37 122 278 401 389 173 91 89 275 378 429 462 410 52 0 4 1 16 138 179 18 0 0 0 0 0 0 0 186 269 275 252 278 222 197 219 118 48 16 19
0 0 0 0 158 249 209 189 40 5 0 13 148 262 261 379 206 63 7 7 0 9 0 0 0 0 0 0 0 0 0 29 208 162 5 2 9 19 15 4 7 7 33
0 0 0 0 91 266 187 213 87 43 0 0 0 64 198 271 308 129 121 167 165 53 25 0 5 38 71 62 7 0 0 0 3 17 23 9 6 9 0 0 0 0 25
0 0 0 0 0 109 257 236 16 7 0 0 0 0 0 0 7 27 33 6 5 0 19 69 67 59 33 15 0 0 0 0 2 28 38 4 0 0 0 0 0 0 0
146 144 0 0 0 0 2 276 268 11 5 0 0 0 0 0 0 0 0 0 0 0 0 0 0 0 0 0 0 0 0 0 3 10 13 11 0 0 0 0 0 0 0
95 0 0 0 0 0 0 0 2 46 82 50 0 0 0 0 0 0 0 0 0 0 0 0 0 0 0 0 0 0 0 0 0 3 10 20 0 0 0 0 0 0 0
0 0 0 0 0 0 0 0 0 0 0 0 2 0 0 0 0 0 0 0 0 0 0 0 0 0 0 0 0 0 0 0 0 0 0 2 0 0 0 0 0 0 0
7 0 0 0 0 0 0 0 0 0 0 0 1 36 11 0 0 0 0 0 0 0 0 0 0 0 0 0 0 0 0 0 0 0 0 0 0 0 0 0 0 0 0
106 0 0 0 0 0 0 0 0 0 0 0 0 0 0 4 65 107 4 0 0 0 0 0 0 0 0 0 0 0 0 0 0 0 0 0 0 0 0 0 0 0 0
245 92 0 0 0 0 0 0 0 0 0 0 0 0 0 0 0 3 16 0 0 0 0 0 0 0 0 0 0 0 0 0 0 0 0 0 0 0 0 0 0 0 0
206 118 1 0 0 0 0 0 0 0 0 0 0 0 0 0 0 0 0 0 0 0 0 0 0 0 0 0 0 0 0 0 0 0 0 0 0 0 0 0 0 0 0
246 177 74 5 0 0 0 0 0 0 0 0 0 0 0 3 6 0 0 0 0 0 0 0 0 0 0 0 0 0 0 0 0 0 0 0 0 0 0 0 0 0 0
296 276 211 119 53 9 31 19 3 3 3 6 1 0 0 0 0 1 0 0 0 0 0 0 0 0 0 0 0 0 0 0 0 0 0 0 0 0 0 0 0 0 0
159 241 216 170 98 60 33 78 79 105 99 122 95 49 26 23 27 14 16 3 0 0 0 0 0 0 0 0 0 0 0 0 0 0 0 0 0 0 0 0 0 0 0

GFSGL_con_mucape_009.txt.gz
CAPE
405 661 970 847 331 474 392 202 155 120 39 54 73 98 100 195 545 756 838 635 536 1007 1059 868 888 995 1308 1333 1366 1176 1042 461 39 43 26 23 23 6 2 15 24 48 41
287 512 1004 988 470 536 445 171 79 53 15 36 60 88 70 626 472 648 427 339 558 696 814 689 704 867 1025 1132 851 725 475 141 5 9 14 30 22 17 15 59 69 50 25
269 291 786 420 508 477 475 721 23 14 24 36 53 59 201 474 588 452 291 332 483 632 650 748 743 826 1063 1006 496 333 240 55 14 2 6 32 23 32 47 5 65 47 82
147 245 320 377 351 606 199 136 32 16 16 389 67 300 271 412 395 399 95 362 531 464 494 685 677 907 954 786 334 159 45 38 20 20 46 32 52 52 15 21 11 7 19
108 228 430 401 371 264 126 118 37 36 307 362 255 201 260 319 209 439 518 523 151 340 557 475 318 336 531 424 120 154 49 44 36 0 0 10 35 55 1 2 0 0 0
114 173 271 234 216 258 168 592 419 648 515 574 324 396 499 91 10 21 166 681 410 494 247 52 40 57 112 148 135 56 17 1 0 0 0 0 0 29 23 0 0 0 3
136 156 93 189 195 200 192 152 190 783 951 482 193 641 401 8 0 0 81 619 772 627 472 266 71 15 48 61 64 46 40 28 5 14 0 2 0 89 15 2 43 50 14
108 132 90 228 300 207 519 584 520 828 736 604 410 577 402 0 0 0 40 720 823 503 449 303 194 140 63 84 52 112 50 21 13 9 17 6 11 23 195 120 164 349 112
76 147 95 337 360 455 469 580 790 1081 1103 836 685 576 344 0 0 0 47 561 499 537 368 335 207 161 4 13 150 12 0 9 3 8 15 10 58 132 197 105 137 96 1
38 129 142 273 291 295 460 693 779 850 754 921 802 625 95 24 0 4 16 547 611 435 564 187 55 21 20 40 181 47 0 0 0 0 7 14 73 124 42 481 274 83 37
2 147 219 342 335 655 490 569 628 494 493 900 738 593 529 224 0 4 20 555 685 503 123 161 13 16 36 54 53 40 26 12 8 143 199 236 313 102 0 100 349 507 249
0 117 300 426 378 669 725 375 229 358 591 871 799 648 267 178 1 3 25 174 57 497 68 67 0 1 17 45 91 100 44 50 182 234 250 291 129 0 5 174 695 331 384
0 71 243 419 352 628 659 235 135 230 551 864 685 517 287 168 7 0 3 33 83 568 186 7 0 0 0 3 3 0 0 111 125 69 19 23 6 22 514 604 396 112 100
0 36 138 246 301 484 275 119 1 13 324 415 434 505 444 301 101 30 6 17 17 24 0 0 0 0 0 0 0 0 14 185 257 224 230 161 256 412 362 286 65 16 16
2 1 123 156 300 368 401 136 11 142 0 94 195 356 436 348 258 55 32 61 125 26 41 0 0 38 26 0 0 0 66 113 211 187 49 75 114 198 109 49 6 1 0
114 1 4 54 193 247 301 289 0 0 0 0 0 58 171 121 84 27 23 20 39 0 62 39 11 22 86 5 1 2 0 0 12 6 27 14 2 11 12 4 0 0 0
343 281 0 0 48 354 245 359 293 3 0 0 0 0 0 91 85 63 53 39 28 5 131 92 93 88 70 43 12 4 0 0 49 27 33 4 0 0 0 0 0 0 0
454 0 0 0 0 0 273 370 384 285 147 58 0 0 0 0 5 27 13 0 0 0 32 153 141 117 69 34 7 3 1 0 1 0 3 34 42 0 0 0 0 0 0
48 0 5 0 0 0 0 10 198 237 261 105 1 0 0 0 0 0 0 0 0 0 0 0 1 0 0 0 1 0 9 2 1 44 89 66 84 30 3 0 0 0 1
136 0 2 0 0 0 0 0 0 0 3 2 1 0 0 0 0 0 0 0 0 0 0 0 0 0 0 0 0 0 0 0 0 49 43 48 70 58 8 0 0 0 0
54 14 0 0 0 0 0 0 0 0 0 0 0 0 0 0 0 0 0 0 0 0 0 0 0 0 0 0 0 0 0 0 0 0 0 39 43 17 43 40 0 0 0
461 276 21 0 0 0 0 0 0 0 0 0 0 0 0 0 0 0 11 6 0 0 0 20 0 0 0 0 0 4 0 1 0 0 0 0 1 14 20 2 0 0 0
764 479 326 50 0 0 0 0 0 0 0 0 0 0 0 22 0 0 20 117 120 1 0 0 12 0 0 0 0 0 0 0 1 0 5 6 0 0 0 0 0 0 0
815 827 818 330 50 0 0 6 0 0 0 0 0 0 0 23 22 0 0 46 176 210 76 0 0 0 0 6 0 0 0 0 0 0 0 0 0 0 0 0 0 0 0
631 1045 1170 785 300 74 75 21 3 11 0 0 0 0 0 3 3 6 8 4 89 224 189 127 32 0 0 0 0 0 0 0 0 0 0 0 0 0 0 0 0 0 0
439 711 1273 1063 668 462 329 329 237 229 143 63 2 13 18 0 10 139 177 99 56 72 214 184 123 21 0 0 0 0 0 0 0 0 0 0 0 0 0 0 0 0 4

GFSGL_con_mucape_012.txt.gz
CAPE
1081 1354 1213 1064 687 733 708 576 669 554 440 311 218 218 320 215 478 657 592 777 764 768 759 632 987 528 600 403 385 355 371 146 47 39 65 45 98 56 42 5 3 2 14
764 942 1045 1174 621 805 699 203 716 569 252 204 147 68 335 475 710 406 592 362 619 644 739 492 628 691 388 445 380 246 155 51 0 2 7 2 4 15 2 35 17 19 32
826 868 948 993 559 894 597 615 576 439 221 268 29 234 440 826 457 141 359 362 604 620 574 653 262 229 292 380 226 82 29 5 2 1 0 10 11 24 36 20 33 33 37
709 542 954 559 752 895 585 208 540 164 154 59 188 371 537 581 668 206 210 545 155 291 194 245 289 206 274 133 88 47 9 1 12 0 0 0 25 34 54 5 1 20 19
482 587 862 697 675 774 77 382 131 459 359 347 77 174 533 380 151 265 354 71 167 116 246 171 255 208 179 37 21 22 11 18 0 1 0 17 0 0 0 21 0 2 5
511 633 667 638 707 511 295 537 730 692 403 305 579 369 506 0 11 72 234 166 175 183 40 138 104 116 42 7 7 3 3 0 0 0 0 0 10 0 1 6 12 0 0
440 404 373 522 492 464 308 344 332 403 446 378 393 393 81 0 0 28 163 303 377 217 73 34 66 31 16 5 3 9 8 9 2 0 0 6 0 1 8 2 0 0 0
289 273 307 278 286 536 603 470 615 848 706 396 545 578 121 0 0 52 171 563 562 208 116 35 53 48 20 15 2 0 8 3 8 8 2 1 11 12 5 0 0 0 0
175 247 314 363 506 435 573 879 818 898 750 507 692 707 104 0 0 83 185 528 361 174 123 118 37 30 13 8 7 9 17 3 12 13 6 8 23 9 0 0 5 0 2
153 179 426 518 508 488 943 968 1119 1040 516 660 731 643 45 0 0 2 42 544 415 178 80 34 9 19 29 23 8 8 0 5 1 0 7 2 20 28 21 19 0 0 0
188 237 556 727 1019 1092 1399 1305 1230 491 670 714 482 552 198 19 4 12 36 364 342 171 6 1 0 14 27 20 12 7 1 4 0 0 1 26 58 49 54 76 163 7 0
221 307 676 970 621 892 1304 1399 1115 815 665 793 576 359 327 38 0 1 78 126 97 43 16 0 1 4 2 0 1 2 2 4 0 0 0 17 32 16 45 63 322 139 308
239 699 850 743 1099 1106 1011 1230 819 1003 745 662 601 236 175 1 0 3 40 9 31 60 1 0 3 5 0 17 2 0 0 6 39 32 0 0 41 0 0 218 121 60 68
390 867 970 840 1214 961 619 443 303 614 645 670 485 359 143 8 0 1 6 23 3 0 0 0 0 0 0 19 15 9 23 62 35 13 49 103 14 0 318 271 143 70 73
379 702 812 713 921 996 657 68 260 409 375 563 598 512 209 120 52 18 65 41 5 0 0 0 0 0 0 0 0 0 1 67 20 15 10 0 67 164 300 238 95 16 28
216 440 386 367 483 510 453 20 0 0 2 17 362 530 238 355 66 17 58 67 43 1 0 0 5 7 0 0 0 5 11 120 98 134 154 137 193 220 221 143 37 0 0
173 190 140 131 304 498 399 464 271 0 0 0 0 65 76 103 47 9 15 43 14 0 88 45 15 37 0 0 0 0 0 0 49 14 0 0 1 8 14 3 0 0 0
311 44 117 16 309 243 427 503 394 150 20 4 0 0 53 62 32 7 15 19 34 0 68 127 99 48 74 31 0 0 0 0 0 0 3 0 0 0 0 0 0 0 0
247 15 13 20 19 69 345 387 433 338 183 35 0 0 26 25 7 0 9 36 21 7 11 77 180 153 101 91 48 1 0 0 0 0 6 0 0 0 0 0 0 0 0
323 0 4 25 0 0 0 113 307 435 321 129 5 0 0 1 0 0 0 0 0 0 0 0 1 6 10 18 23 17 0 0 0 0 0 3 0 0 0 0 0 0 0
79 21 0 0 13 0 0 0 0 35 280 286 121 0 0 0 0 0 0 0 0 0 0 0 0 0 0 0 0 0 0 0 0 0 0 0 0 0 0 0 0 0 0
234 142 1 0 0 0 0 0 0 0 0 1 2 0 0 0 0 0 0 0 0 0 0 0 0 0 0 0 0 0 0 0 0 0 0 0 0 0 0 0 0 0 0
463 346 248 57 0 0 0 0 0 0 0 0 0 0 0 0 0 0 0 0 0 0 0 0 0 0 0 0 0 0 0 0 0 0 0 0 0 0 0 0 0 0 0
863 681 464 276 194 35 0 0 0 0 0 0 0 0 0 0 0 0 0 0 0 0 0 0 0 0 0 0 0 0 0 0 0 0 0 0 0 0 0 0 0 0 0
663 912 933 757 314 252 108 0 0 0 0 0 0 0 0 0 0 0 0 0 0 0 1 0 0 0 0 0 0 0 0 0 0 0 0 0 0 0 0 0 0 0 0
585 811 948 969 842 406 300 128 9 0 0 0 0 0 0 0 0 0 0 0 0 0 9 23 2 0 0 0 0 0 0 0 0 0 0 0 0 0 0 0 0 0 0

GFSGL_con_mucape_015.txt.gz
CAPE
500 234 278 329 224 93 51 0 0 0 0 5 0 27 20 39 39 105 138 263 332 369 401 312 295 282 208 337 248 268 229 108 35 14 25 147 153 132 24 44 30 62 14
518 335 251 183 178 70 0 4 6 0 0 0 12 22 141 189 88 24 115 138 347 181 162 269 278 208 239 147 239 181 87 37 8 23 7 78 29 63 67 55 4 21 1
302 298 405 186 170 160 11 12 0 0 0 10 30 169 187 71 67 67 172 224 254 138 182 168 217 167 316 223 157 77 43 3 0 0 0 11 29 36 3 19 0 17 28
440 297 266 274 156 150 17 26 1 1 0 31 35 227 159 237 185 86 257 109 120 155 168 171 153 128 133 91 71 39 16 1 0 1 2 1 0 0 31 0 0 11 5
333 333 219 337 237 79 55 17 18 3 16 35 62 128 103 64 84 178 45 43 38 44 67 126 116 92 70 36 22 6 4 3 0 0 0 0 0 0 0 2 7 7 3
362 226 325 170 411 110 72 42 31 29 35 20 54 77 44 0 14 81 68 53 29 55 41 45 62 26 45 34 10 29 18 7 3 0 0 0 0 1 0 10 0 0 0
297 328 352 323 7 11 41 32 25 30 66 67 64 16 0 0 0 71 76 98 22 13 29 43 34 10 9 2 0 13 9 4 2 1 0 0 21 8 7 3 3 0 0
189 174 201 197 51 41 28 17 56 117 31 42 85 22 0 0 5 72 147 133 79 28 14 17 6 9 10 5 2 2 5 16 8 10 8 5 12 5 3 2 1 0 0
114 123 164 93 70 188 140 40 53 59 97 46 180 63 0 0 7 116 180 54 26 22 26 10 9 7 11 1 5 1 8 6 5 4 13 20 13 10 0 0 0 0 0
82 109 235 131 151 143 48 58 75 54 47 107 161 52 0 0 17 14 91 23 16 3 11 12 19 14 11 3 0 1 8 8 10 17 24 6 4 0 0 0 0 0 0
71 112 209 165 229 280 212 236 200 162 149 150 69 22 0 0 0 0 85 3 0 0 7 10 5 23 11 18 16 9 8 8 11 18 9 6 0 0 0 2 0 0 0
70 250 451 321 479 397 379 336 258 45 95 26 33 0 0 0 2 5 27 5 0 0 1 7 12 11 16 19 10 4 10 17 6 9 2 3 0 0 7 12 7 0 0
65 285 235 276 284 245 240 266 145 114 79 11 10 0 0 0 0 5 4 12 0 0 0 0 5 1 0 10 4 4 9 1 0 0 0 0 0 0 9 23 38 48 40
279 198 410 474 386 370 208 299 211 109 72 55 28 4 0 0 0 0 1 2 0 0 0 0 0 0 0 0 1 0 2 0 0 0 0 0 0 7 2 2 0 0 5
359 207 233 534 426 352 34 83 24 283 286 173 84 12 0 0 8 12 4 0 0 0 0 0 0 0 0 0 0 0 0 0 0 0 0 0 0 0 0 0 0 9 32
394 280 285 559 503 361 83 0 2 4 342 377 191 56 17 3 11 33 44 9 0 0 0 0 0 0 0 0 0 0 0 0 0 0 0 0 0 1 14 111 103 92 46
226 346 304 207 453 317 155 20 0 0 15 343 354 173 63 63 0 31 29 30 0 0 0 0 0 0 0 0 0 0 0 16 10 0 0 52 70 0 63 166 137 133 100
69 118 100 120 104 294 164 96 13 0 0 0 54 302 216 206 30 37 53 57 20 0 0 0 0 0 0 0 0 0 0 0 6 19 10 3 2 20 91 157 167 149 21
0 7 3 0 91 30 200 212 157 131 48 0 0 14 112 59 21 27 25 36 18 1 8 14 0 0 6 0 0 0 0 0 1 2 0 11 25 89 102 105 113 33 0
0 0 0 0 0 22 14 134 202 234 164 123 0 0 24 7 0 1 0 0 0 0 0 34 67 31 0 0 1 0 0 0 0 0 0 0 0 0 3 2 0 0 0
195 0 0 0 0 0 0 4 152 159 201 164 105 40 0 0 0 0 0 0 0 0 0 0 27 64 64 76 17 31 14 0 0 0 0 0 0 1 0 0 0 0 0
173 216 254 51 0 0 0 0 0 95 185 203 150 74 17 0 0 0 0 0 0 0 0 0 0 5 23 1 0 11 2 8 7 0 0 0 0 0 0 0 0 0 0
340 160 215 265 346 54 0 0 0 0 0 83 145 102 44 0 0 0 0 0 0 0 0 0 0 0 0 0 0 0 0 0 0 0 0 0 0 0 0 0 0 0 0
688 541 202 215 269 340 181 0 0 0 0 0 1 35 41 0 0 0 0 0 0 0 0 0 0 0 0 0 0 0 0 0 0 0 0 0 0 0 0 0 0 0 0
701 714 621 476 205 264 330 252 106 0 0 0 0 0 0 0 0 0 0 0 0 0 0 0 0 0 0 0 0 0 0 0 0 0 0 0 0 0 0 0 0 0 0
552 659 670 575 588 561 418 361 397 241 85 0 0 0 0 0 0 0 0 0 0 0 0 0 0 0 0 0 0 0 0 0 0 0 0 0 0 0 0 0 0 0 0

GFSGL_con_mucape_021.txt.gz
CAPE
714 484 303 186 173 154 94 17 0 0 0 0 0 0 0 17 22 35 37 39 12 90 63 132 154 100 77 104 113 145 73 45 25 22 494 573 227 309 223 313 328 208 254
171 137 55 71 54 10 0 0 0 0 0 0 0 1 12 11 14 36 36 68 65 108 94 148 141 120 117 132 179 153 74 48 25 47 222 457 257 180 233 97 207 137 32
82 35 24 10 7 0 0 0 0 0 0 0 0 9 42 25 38 37 78 68 83 101 99 68 119 117 113 110 123 97 57 41 5 53 85 107 132 125 89 71 59 2 6
95 46 43 34 35 1 0 0 0 0 0 0 27 34 65 92 84 86 72 73 63 104 125 90 129 112 90 62 31 43 45 5 10 20 72 26 2 9 22 41 27 31 26
84 95 89 90 41 3 0 0 0 0 1 26 53 51 29 30 56 50 24 33 58 60 123 107 114 121 65 48 20 41 32 5 13 11 20 56 10 7 10 35 4 5 1
198 102 117 92 12 7 3 0 0 5 14 51 46 24 0 32 67 54 43 45 54 51 88 70 50 58 33 38 40 13 1 23 10 0 1 0 26 0 13 3 8 0 0
192 146 133 36 0 21 10 1 10 13 25 45 32 9 0 1 62 67 61 29 35 64 44 53 30 21 19 14 5 1 1 1 0 2 8 13 6 13 23 2 3 0 0
205 149 91 2 1 21 22 10 7 25 34 41 20 0 0 19 107 83 47 26 42 23 37 42 14 17 15 11 10 0 0 0 2 6 19 3 9 3 3 2 0 0 5
120 79 48 0 0 1 2 9 10 18 30 26 7 0 0 36 134 112 58 19 35 33 35 13 12 7 8 26 28 2 2 1 3 3 5 5 3 3 6 0 0 1 1
71 63 59 1 0 0 0 0 6 0 7 14 6 0 2 30 108 63 23 16 33 10 28 14 5 3 2 1 4 10 6 8 0 0 2 3 4 4 4 0 0 0 0
77 88 76 23 0 0 0 0 0 7 0 3 0 0 0 16 53 35 21 2 1 0 0 0 1 0 0 1 8 9 8 2 2 9 7 16 9 17 16 0 0 0 0
56 84 70 44 1 0 0 0 2 1 0 0 0 0 0 0 9 23 3 2 2 0 2 1 0 1 0 5 6 2 3 5 10 10 12 4 1 2 1 0 0 0 0
35 36 68 41 2 0 0 0 4 17 0 0 0 0 0 0 0 19 0 0 0 12 9 4 0 3 1 1 4 0 4 0 0 2 0 0 0 0 0 0 0 0 0
23 27 82 26 30 40 10 0 68 17 8 0 0 0 0 0 0 1 0 0 0 0 2 1 3 1 0 0 4 9 8 3 2 0 0 0 0 0 0 0 0 0 0
22 32 85 72 97 98 71 69 36 0 0 0 0 0 0 0 0 0 0 0 1 2 3 2 2 12 2 0 0 4 6 5 10 0 0 0 0 0 0 0 0 2 1
26 43 75 109 133 65 77 27 22 10 9 0 0 0 0 0 0 0 1 0 0 0 2 3 9 5 5 0 0 0 0 0 0 0 0 0 0 0 0 0 0 4 4
21 56 91 148 106 110 29 33 41 9 11 39 17 0 0 0 0 0 0 0 0 0 0 2 1 2 2 0 0 0 0 0 0 0 0 0 0 0 0 0 0 0 0
8 89 123 121 149 153 65 0 5 0 2 12 90 87 27 0 0 0 0 0 0 0 0 0 0 0 0 0 0 0 0 0 0 0 0 0 0 0 0 0 0 0 0
0 16 88 106 170 178 140 63 0 0 0 0 125 188 147 33 2 12 9 0 0 0 0 0 0 0 0 0 0 0 0 0 0 0 0 0 0 0 0 0 0 0 0
0 0 35 106 170 180 186 122 86 17 13 0 55 208 242 143 41 7 22 20 0 0 0 0 0 0 0 0 0 0 0 0 0 0 0 0 0 0 0 0 0 0 0
0 0 17 37 87 146 165 151 110 71 32 29 59 54 139 230 116 64 0 7 8 7 0 0 0 0 0 0 0 0 0 0 0 0 0 0 0 0 12 19 40 34 40
5 0 0 10 40 72 131 100 67 50 43 39 43 64 118 126 166 132 64 0 0 3 9 7 0 0 0 0 0 0 0 0 0 0 0 0 0 0 0 0 2 7 10
71 42 3 0 27 83 110 104 83 41 1 6 24 35 53 80 80 99 104 53 6 0 4 9 10 9 0 0 0 0 0 0 0 0 0 0 0 2 0 0 0 0 0
202 120 117 72 98 130 125 111 109 103 112 86 0 0 1 13 56 58 48 47 23 6 0 0 0 0 0 0 0 0 0 0 0 0 0 10 20 20 17 22 28 33 20
342 373 257 201 165 131 138 136 114 100 113 101 102 116 66 8 0 2 22 11 1 0 0 0 0 0 0 0 0 0 0 0 0 8 22 33 35 32 28 21 18 19 11
198 389 447 458 410 355 315 277 230 201 166 170 169 147 140 194 171 85 0 0 0 0 0 0 0 0 0 0 0 0 0 0 0 0 0 0 0 28 35 9 0 0 0

GFSGL_con_mucape_024.txt.gz
CAPE
1073 955 665 478 352 263 196 140 62 0 0 0 0 0 0 4 2 15 33 48 57 11 24 53 85 67 16 29 43 42 12 18 11 39 26 176 385 138 75 49 139 414 395
386 269 171 162 139 119 71 14 0 0 0 0 0 0 0 0 0 0 27 47 33 16 40 41 124 121 60 65 92 114 70 43 18 51 108 121 78 600 134 195 330 143 158
139 83 19 28 27 6 0 0 0 0 0 0 0 0 11 2 12 36 41 78 26 46 56 66 131 101 86 96 90 72 61 46 39 37 188 178 221 140 198 76 65 52 193
0 0 2 4 4 5 0 0 0 0 0 0 9 11 20 44 49 70 63 68 69 50 68 62 79 96 78 67 75 100 53 46 44 111 42 48 56 84 68 41 81 70 67
0 5 12 22 17 1 0 0 0 0 0 27 27 9 1 27 33 36 21 39 53 50 78 91 61 93 78 59 28 19 37 37 25 36 28 53 46 45 28 20 12 0 16
22 34 45 61 18 1 0 0 0 0 7 55 28 0 0 32 72 50 24 41 47 50 45 54 144 49 37 31 4 8 22 23 13 23 25 15 1 25 19 20 8 7 0
73 55 81 49 2 9 4 0 0 3 39 43 15 0 0 8 64 63 30 25 39 45 47 41 35 20 8 6 0 0 0 5 7 0 0 28 2 14 28 37 11 10 5
158 68 108 9 3 18 4 1 6 18 36 37 9 0 0 62 98 54 37 11 25 29 36 27 24 22 22 11 1 0 0 0 0 12 0 8 4 17 10 9 4 0 0
282 101 95 0 2 15 15 7 9 29 32 32 0 0 0 68 94 51 14 12 18 30 27 18 11 14 17 2 8 0 0 0 4 0 1 12 2 3 5 2 0 0 0
266 101 48 0 0 0 0 0 4 20 25 7 0 7 1 75 86 23 7 11 5 8 12 0 2 11 24 27 14 1 0 1 2 0 2 0 4 3 1 2 2 0 0
121 59 42 1 0 0 0 5 0 0 0 0 0 0 0 43 72 12 0 2 0 1 1 6 5 2 1 2 2 10 0 1 0 1 1 1 1 8 10 0 0 0 0
46 42 50 13 0 0 0 19 14 4 0 0 0 0 0 3 55 14 3 0 0 4 0 4 1 0 0 1 1 4 4 1 6 7 5 4 0 0 0 0 0 0 0
39 35 75 44 0 0 12 10 21 17 1 0 0 0 0 4 32 10 1 0 0 10 7 3 2 0 0 0 10 15 11 2 4 3 0 0 0 0 0 0 0 0 0
44 40 65 56 12 0 21 0 42 28 6 0 0 0 0 0 22 5 0 0 4 10 6 0 2 0 0 0 0 0 4 3 3 0 0 0 0 0 0 0 0 0 0
35 46 59 64 34 9 5 4 43 6 0 0 0 0 0 0 4 0 0 0 13 1 3 0 3 0 0 0 0 0 1 1 0 0 0 0 0 0 0 0 0 0 0
0 35 36 80 64 48 5 3 5 8 0 0 0 0 0 0 0 2 0 0 1 0 0 0 0 0 0 0 0 2 0 0 0 0 0 0 0 0 0 0 0 0 0
0 0 15 68 91 79 9 0 0 0 0 0 0 0 0 0 5 12 0 0 2 0 0 2 0 0 0 0 0 0 0 0 0 0 0 0 0 0 0 0 0 0 0
0 0 0 47 101 89 20 0 3 4 0 1 21 11 0 0 0 0 0 1 1 1 1 1 0 1 0 0 0 0 0 0 0 0 0 0 0 0 0 0 0 0 0
0 0 0 35 98 99 99 1 0 0 0 0 44 69 36 0 0 0 0 0 0 0 0 0 0 0 0 0 0 0 0 0 0 0 0 0 0 0 0 0 0 0 0
0 0 2 18 73 90 129 105 12 0 0 0 1 96 100 58 0 2 0 0 0 0 0 0 0 0 0 0 0 0 0 0 0 0 0 0 0 0 0 0 0 0 0
0 0 0 13 43 68 115 153 131 50 17 0 0 7 140 109 56 1 11 15 5 0 0 0 0 0 0 0 0 0 0 0 0 0 0 0 0 0 0 0 0 0 8
0 0 0 0 2 34 100 140 157 123 66 28 11 14 50 78 143 93 30 3 0 0 0 0 0 0 0 0 0 0 0 0 0 0 0 0 0 0 0 0 0 5 7
51 25 2 0 0 0 1 26 104 139 92 46 21 20 20 21 27 39 54 52 56 35 4 0 0 0 0 0 0 0 0 0 0 0 0 0 0 0 0 0 0 0 0
163 166 95 34 6 0 9 5 5 12 35 40 16 11 13 17 25 30 20 24 21 14 13 17 3 0 0 0 0 0 0 0 0 0 0 0 0 0 0 0 0 3 8
200 168 163 129 83 46 64 73 54 42 57 77 59 26 1 0 0 0 0 0 0 5 16 15 8 1 0 0 0 0 0 0 0 0 0 0 0 0 0 0 0 13 29
7 45 120 182 183 171 176 212 208 220 129 110 110 118 127 113 55 11 0 0 0 0 0 0 0 0 0 0 0 0 0 0 0 0 0 0 0 0 0 5 2 6 21

GFSGL_con_mucape_030.txt.gz
CAPE
1892 1941 1898 1840 1726 1621 1582 1554 1509 1439 1236 898 626 511 347 419 625 958 959 834 767 953 776 754 771 844 595 389 351 900 1276 1078 829 879 898 722 850 1143 1118 894 519 304 257
1765 1739 1642 1469 1403 1417 1362 1289 1038 805 521 320 203 132 197 486 722 738 700 593 567 548 709 571 584 745 766 757 1285 924 917 1347 1190 679 47 9 385 682 537 322 262 191 391
1546 1478 1419 1377 1352 1250 1027 762 521 405 226 131 189 257 221 393 615 776 629 567 174 480 662 627 528 746 995 1042 1202 1149 1018 1256 1173 171 129 5 14 6 10 28 135 385 330
1002 1025 1080 1083 1028 892 625 394 245 160 231 250 223 164 314 499 605 759 458 710 740 651 690 701 643 796 882 989 1070 1056 1106 1208 655 49 5 58 59 11 15 106 75 254 120
375 410 529 583 549 426 314 266 240 144 114 221 326 365 531 697 250 628 594 727 260 596 751 729 759 532 531 721 936 1017 992 669 102 0 34 4 17 84 35 172 77 94 60
135 264 312 303 340 410 449 402 174 243 398 404 461 330 530 175 8 9 173 288 639 604 711 624 688 239 55 61 209 316 656 639 231 4 29 66 31 37 45 73 2 24 30
223 288 308 264 281 327 184 226 181 471 453 601 505 283 530 613 7 3 14 100 245 255 285 344 209 75 53 28 12 37 116 49 32 45 19 21 25 40 18 4 16 11 3
226 273 296 130 123 117 33 136 425 393 682 734 544 545 717 47 20 9 24 126 43 45 103 156 169 69 43 52 46 40 11 30 13 1 5 10 29 9 34 4 8 5 2
238 332 155 101 98 156 48 325 482 636 765 623 507 608 686 183 10 7 18 39 18 17 25 34 50 47 2 7 51 6 0 3 5 1 4 11 21 17 2 5 8 5 0
273 206 136 114 32 55 130 270 457 628 579 338 515 643 100 112 8 6 2 28 19 20 7 15 15 7 4 1 10 0 0 0 0 0 5 5 0 6 4 3 2 2 1
328 225 213 217 153 205 306 391 273 424 326 507 488 590 176 104 24 11 1 9 25 26 14 14 16 8 5 4 1 0 0 0 0 1 0 0 4 10 7 2 1 20 12
161 249 347 434 276 293 371 468 407 471 562 656 552 394 64 50 12 4 0 1 3 6 14 17 3 6 15 0 7 0 0 1 0 0 0 1 1 0 0 87 132 93 75
251 389 514 472 321 477 694 852 896 880 628 647 432 251 54 5 11 0 0 5 2 1 0 9 13 4 17 4 5 0 5 11 9 0 0 1 0 1 80 72 106 49 0
457 517 785 696 595 613 717 737 995 1017 780 572 374 243 86 3 75 1 0 4 0 0 2 4 8 0 8 7 0 2 7 3 0 0 0 4 66 79 70 66 42 16 10
565 736 790 697 756 735 765 641 888 765 409 570 453 203 134 4 56 1 0 9 0 0 12 17 24 8 3 4 22 36 109 67 74 74 71 67 62 64 55 28 16 1 0
660 582 498 716 715 518 607 307 12 0 6 32 25 26 46 9 0 0 0 0 0 0 26 43 59 48 41 79 81 92 104 46 89 83 77 62 33 17 13 6 2 0 0
454 565 478 452 587 226 707 661 483 0 0 0 0 0 0 0 0 0 0 0 0 0 9 42 32 28 29 34 56 63 79 87 98 99 73 54 40 37 4 2 0 0 0
506 405 296 351 546 243 175 447 421 612 367 35 0 0 0 0 0 0 0 0 0 10 10 16 43 56 73 89 91 84 67 67 57 56 41 26 16 8 0 0 0 0 0
522 372 391 394 486 376 43 267 297 384 639 369 0 0 0 1 2 0 0 1 0 24 39 29 33 36 64 74 75 67 67 70 45 20 11 6 5 4 0 0 0 0 0
451 203 350 518 650 598 371 18 216 255 340 642 462 37 0 0 0 0 8 8 25 37 25 22 12 15 38 91 113 95 123 94 58 49 17 7 1 0 1 2 2 1 0
167 400 173 505 504 538 490 291 37 22 72 174 557 214 0 218 194 35 66 249 163 142 128 204 203 188 126 81 75 117 64 126 123 95 127 98 41 21 13 7 8 9 9
123 223 188 157 283 451 508 551 491 201 71 45 171 137 38 83 376 308 263 282 344 344 304 232 157 98 174 218 234 256 174 91 110 194 206 205 207 205 190 193 182 169 153
87 191 237 196 295 214 532 528 563 570 399 226 241 142 64 348 503 550 671 637 556 442 315 277 330 300 253 201 128 126 194 270 313 305 332 324 295 272 277 290 264 233 184
100 128 163 258 400 507 607 720 714 395 645 639 594 350 236 278 414 480 600 730 785 782 716 611 548 404 269 242 265 281 278 247 120 40 180 310 341 281 274 258 182 113 83
17 3 0 10 61 64 43 80 172 280 226 338 469 545 641 592 461 336 308 302 347 474 575 624 647 602 602 556 527 378 134 13 42 7 168 152 123 117 59 54 63 49 79
91 110 119 116 51 19 7 11 13 12 14 10 6 5 5 8 29 11 1 0 0 93 138 186 216 216 179 116 141 137 172 158 88 18 0 43 93 136 144 130 94 64 67

GFSGL_con_mucape_033.txt.gz
CAPE
2534 2539 2590 2302 2270 2324 2140 2186 1972 2125 1560 1318 1198 1110 955 720 615 825 862 706 720 1066 1056 837 815 1007 723 449 478 920 483 641 738 296 954 1274 1270 1454 1140 916 395 430 179
2236 2314 2178 2322 2200 2358 1684 1509 1329 1268 1116 906 710 531 329 308 621 760 758 661 729 809 877 900 550 720 829 1274 1213 1180 940 1360 566 723 573 469 1026 1108 817 859 457 125 95
2011 1891 1880 1920 1793 2093 1378 1223 999 767 504 342 211 174 206 378 639 795 715 728 780 559 721 893 463 774 1176 1206 935 1335 1437 1445 1294 794 32 87 274 178 454 323 177 181 153
1494 1524 1621 1775 1647 1203 979 792 526 324 210 216 238 202 164 252 497 716 710 523 697 330 1067 1009 441 751 1031 1083 1266 1181 1366 1399 920 106 8 117 40 5 65 39 30 219 271
977 1028 1095 1042 916 672 503 376 262 252 222 181 227 491 378 720 447 787 788 698 651 719 875 708 820 649 464 889 1293 1494 1383 1215 279 4 2 2 2 4 3 13 44 92 46
430 378 308 290 223 297 331 697 305 140 556 709 678 491 780 175 0 4 454 665 360 457 705 722 748 269 355 376 322 549 832 936 184 44 0 17 15 5 3 0 15 18 1
209 219 248 289 297 480 441 483 192 946 968 972 808 391 826 71 0 0 95 440 599 619 716 833 680 367 264 259 118 302 281 193 96 147 10 31 8 19 2 2 1 1 0
215 180 144 118 199 283 380 167 1077 1039 798 801 555 787 890 0 0 1 31 243 239 298 294 510 569 261 293 163 330 414 226 243 149 28 13 20 20 7 26 36 4 1 12
203 148 122 122 124 83 92 387 1055 677 757 771 696 759 814 23 0 10 40 44 6 8 94 200 346 215 18 24 131 84 67 50 7 10 14 6 36 43 4 5 6 32 16
198 145 147 137 146 178 292 772 858 525 596 502 695 746 173 45 0 1 21 5 7 13 7 13 34 11 0 20 14 60 1 1 0 2 0 0 19 10 33 21 3 4 1
200 194 138 136 147 554 955 1087 843 372 580 868 701 668 356 101 3 1 0 10 15 23 7 5 11 2 0 3 3 5 1 0 0 1 2 3 12 12 26 6 1 13 2
258 131 314 398 99 370 597 440 379 956 724 739 723 381 198 18 0 0 0 0 9 10 6 6 5 5 3 0 0 0 0 0 0 2 1 0 0 4 4 2 4 35 78
344 486 457 412 525 498 744 696 655 649 452 595 742 373 79 0 1 0 0 1 0 18 9 2 1 0 0 2 0 0 0 0 0 1 0 0 3 0 0 1 53 98 128
252 493 657 624 733 882 652 1090 1196 1344 1080 880 761 504 83 0 1 0 0 0 0 0 2 7 2 12 0 0 0 0 0 0 0 0 0 1 0 0 76 112 130 72 23
432 535 608 88 821 1007 671 786 1186 513 492 797 838 580 109 19 1 0 1 3 17 0 0 0 1 5 0 0 0 0 1 9 4 6 1 3 48 64 58 61 41 1 8
304 544 212 312 371 610 547 232 66 3 39 57 16 116 36 1 0 0 0 0 0 0 28 78 47 17 11 34 62 69 90 16 75 65 64 62 67 62 63 57 31 3 0
945 613 284 281 566 454 461 426 159 0 0 0 0 0 0 0 0 0 0 0 0 5 66 66 33 36 71 38 59 91 77 113 101 74 68 78 95 59 26 17 4 0 0
848 44 258 364 122 759 785 482 439 198 151 0 0 0 0 0 0 0 0 0 0 4 47 49 57 73 90 103 89 78 113 81 89 63 46 70 73 31 13 7 1 1 0
260 197 262 461 381 198 419 513 605 627 302 9 0 0 0 0 0 0 0 5 13 35 20 42 65 55 69 78 109 46 46 50 47 47 70 63 54 41 26 4 1 0 0
217 102 246 503 298 167 391 296 429 669 513 171 197 21 0 0 0 0 0 13 22 27 24 20 28 14 100 108 98 103 119 86 38 47 42 29 19 7 2 0 0 0 0
314 175 245 413 180 315 98 101 292 392 486 338 346 83 0 117 16 13 20 11 13 81 108 111 75 82 104 148 125 98 142 153 101 64 59 39 28 16 6 3 4 3 0
232 39 106 303 242 337 318 219 61 45 96 459 291 6 63 160 329 298 214 306 153 174 226 352 252 256 167 172 197 209 239 208 249 207 160 140 134 130 118 90 76 127 136
229 139 46 162 358 236 277 385 353 199 132 131 433 169 111 376 402 285 245 263 336 374 320 455 315 303 145 91 175 286 403 387 386 301 336 381 385 359 412 432 353 449 482
153 312 345 440 242 242 155 487 636 460 418 201 514 262 219 197 244 718 758 728 879 446 390 390 305 220 200 195 149 156 141 134 207 223 428 439 430 406 422 355 334 413 509
76 110 149 179 168 222 341 361 409 312 443 497 320 260 151 169 202 253 307 263 432 594 607 524 440 462 535 411 396 272 158 142 75 76 140 291 333 499 234 242 332 456 389
0 0 23 57 156 188 259 227 267 257 277 342 349 359 371 278 155 168 132 114 83 83 113 223 198 286 351 370 369 332 337 321 335 283 166 84 196 208 152 243 200 211 176

GFSGL_con_mucape_036.txt.gz
CAPE
2421 2612 2986 3044 2841 2923 2631 2373 2446 2307 2130 1908 1767 1581 1422 1418 1426 1322 1246 975 991 991 883 549 873 878 699 557 221 356 101 115 135 89 174 78 135 232 393 232 187 140 249
2210 2030 2113 1856 1789 1961 1924 1777 1882 1965 1846 1612 1428 1112 988 954 1156 1175 955 788 764 927 805 630 732 820 702 491 465 191 142 142 89 115 171 198 210 487 556 325 157 63 51
1982 2168 2018 1960 1491 1351 1633 1751 1751 1745 1599 962 877 768 537 647 744 1146 992 803 701 671 553 398 656 689 497 456 623 270 232 290 100 97 63 239 213 155 352 102 172 114 124
1607 1519 1689 1657 1361 1399 1536 1517 1258 1029 872 732 679 434 601 635 831 834 605 620 692 342 525 381 472 647 555 637 515 575 435 206 183 69 127 308 328 88 114 61 32 64 148
1373 1308 1369 1230 1176 1278 1147 1025 917 747 619 470 730 513 851 389 570 734 1054 933 580 271 471 516 328 371 566 724 966 778 516 298 77 68 21 42 85 64 60 16 32 53 107
1512 1505 1214 1124 934 1007 880 386 883 872 807 356 541 620 636 218 107 29 399 797 482 471 246 423 185 120 165 228 252 601 451 189 62 1 0 87 50 54 6 0 24 47 64
689 561 533 528 496 321 372 368 897 1003 748 548 488 649 502 0 0 0 184 491 833 415 583 364 481 295 235 113 237 330 354 137 21 0 35 19 2 20 39 84 0 1 0
310 166 353 313 310 339 326 514 979 933 1060 997 895 677 80 0 0 7 125 388 650 543 575 405 497 447 359 245 423 294 83 244 6 2 1 1 2 5 6 16 0 0 1
327 201 264 273 251 219 404 673 983 793 728 842 863 884 80 0 2 37 51 30 94 175 75 147 172 57 46 112 482 61 49 22 15 0 3 0 0 4 2 1 5 0 0
288 182 216 147 179 397 404 826 886 816 931 810 673 586 1 0 0 1 3 4 10 10 26 30 31 66 2 67 27 15 49 13 2 2 2 2 9 23 17 93 3 3 0
108 168 126 133 178 340 580 821 723 913 751 719 748 469 112 7 10 7 1 19 15 17 7 26 10 2 6 20 3 3 4 2 0 5 0 11 21 15 21 28 18 15 1
232 47 340 478 227 493 736 986 772 1022 842 639 390 200 35 15 17 4 1 0 6 13 10 10 5 0 0 0 0 2 0 0 0 0 0 1 13 1 13 8 12 8 20
239 307 245 124 218 731 867 922 532 922 792 739 399 146 8 4 1 0 0 1 0 2 7 4 3 0 0 0 0 0 0 0 0 0 0 16 0 7 0 1 8 7 6
491 370 299 522 615 633 857 819 1050 1083 1159 907 511 310 14 0 0 0 0 11 0 2 11 2 1 1 0 0 0 0 0 0 0 5 0 5 6 2 0 0 0 10 23
522 409 331 549 418 192 256 281 302 250 573 729 668 173 1 0 5 0 2 2 0 0 0 1 3 1 0 0 0 0 0 0 5 0 0 0 1 7 1 0 11 14 9
366 553 407 430 951 439 110 138 24 61 58 69 110 229 7 0 0 0 0 0 0 0 0 5 5 0 0 0 0 0 2 0 0 5 7 16 4 7 12 11 16 0 0
414 749 244 432 488 459 349 56 0 25 48 1 4 20 28 0 0 0 0 0 0 12 70 9 1 0 6 16 0 0 0 2 4 8 13 11 10 12 12 0 0 0 0
345 218 260 590 588 315 440 200 132 85 2 0 0 0 0 0 0 0 0 0 1 11 39 14 10 20 32 53 33 35 13 11 24 9 17 17 34 37 25 19 6 0 0
198 147 98 699 630 303 547 461 363 264 2 0 0 0 0 0 0 0 0 4 15 24 10 41 43 43 47 57 32 51 67 61 40 42 45 45 42 34 20 2 0 0 0
62 135 175 621 517 528 412 561 516 320 9 11 2 0 0 0 0 0 0 12 10 65 42 28 61 54 16 37 36 45 40 32 40 47 42 27 24 29 19 12 1 0 0
186 92 230 233 454 681 622 605 758 621 299 413 36 0 0 4 0 0 0 7 28 55 58 95 76 69 60 69 104 54 52 38 18 47 28 48 24 3 0 0 3 0 0
157 320 270 270 134 323 574 519 886 684 419 291 184 20 75 81 12 9 44 37 65 121 261 134 137 62 104 70 58 65 69 50 19 23 36 81 101 53 17 9 0 0 0
75 170 171 141 454 271 206 146 60 656 536 144 171 153 180 171 223 164 261 179 150 152 110 148 251 192 164 139 117 118 107 141 135 137 228 198 156 274 137 151 170 272 202
146 231 343 241 249 223 242 337 224 269 402 152 172 113 248 354 233 169 186 181 177 144 223 243 245 179 185 101 75 81 91 78 104 186 322 377 399 397 400 420 375 352 323
101 186 186 203 148 83 235 244 289 297 278 207 171 38 35 98 296 319 363 351 355 377 234 275 332 286 200 166 101 97 130 121 94 77 112 180 174 264 305 301 341 338 227
0 98 157 127 91 107 171 274 282 249 223 267 243 155 75 50 95 164 238 302 298 252 356 457 353 315 151 163 284 227 126 240 252 160 170 177 128 115 127 115 136 157 139

GFSGL_con_mucape_039.txt.gz
CAPE
1632 1636 2051 2227 2430 2519 2343 2057 1610 1127 1120 1077 1499 1441 1352 1092 1029 687 627 432 409 392 279 201 237 382 200 74 91 10 26 7 1 2 29 31 41 18 84 90 43 125 156
1888 2071 2131 2288 2396 2202 1661 1913 1618 1619 1443 1404 1361 1193 1101 807 698 510 334 469 464 276 157 145 61 432 252 133 54 0 0 3 0 6 27 57 84 74 87 84 28 12 17
2033 2083 2183 2102 2000 1733 1950 1980 1700 1540 1307 1116 1329 1023 616 464 330 364 213 384 327 345 286 193 54 266 162 115 64 5 0 1 26 49 28 121 65 50 46 8 14 1 6
2138 1860 1802 1801 1639 1559 1463 1361 1467 980 839 553 275 252 256 320 411 543 478 441 360 287 279 94 117 303 158 145 63 42 21 7 21 39 41 70 26 41 19 5 2 37 3
1765 1821 1435 1179 968 1061 1114 983 502 363 187 65 184 253 340 460 513 493 458 441 368 267 168 119 143 152 150 126 179 182 48 46 14 5 19 194 13 59 1 2 1 4 10
1329 1211 973 816 1176 619 413 165 108 24 21 190 224 165 193 194 151 340 479 348 231 152 9 119 60 97 210 267 265 208 86 60 52 38 3 3 95 3 4 2 5 6 5
1044 825 861 696 489 122 8 11 145 76 209 289 223 99 38 72 9 31 366 229 37 45 59 44 84 80 111 120 267 358 149 62 38 21 19 51 5 1 62 7 10 3 1
640 522 425 149 223 69 45 144 222 159 154 356 185 28 0 0 0 76 292 234 202 184 127 178 172 85 73 160 299 195 111 69 6 0 0 0 1 4 15 1 22 2 3
211 99 81 29 133 32 141 210 104 142 217 279 102 34 0 0 10 22 60 69 44 46 136 120 169 109 125 183 222 122 11 1 2 0 0 2 1 6 3 4 3 0 0
41 45 23 12 23 91 117 122 99 126 179 348 162 31 0 0 2 0 5 35 40 75 23 25 19 8 5 118 10 1 114 7 20 3 25 15 8 0 1 6 1 0 0
23 34 17 18 58 144 177 86 127 192 257 209 38 0 0 0 0 4 5 13 17 18 79 163 51 7 16 20 83 233 33 5 1 29 1 7 15 6 14 7 10 0 0
26 18 7 60 126 130 110 130 115 168 187 76 15 0 0 1 1 0 0 1 8 22 19 25 3 4 2 3 4 0 1 1 3 1 16 4 8 20 4 20 29 7 25
22 18 33 49 78 117 69 156 121 184 138 28 5 0 0 0 0 0 0 0 5 25 33 20 4 0 0 0 0 0 0 0 0 0 0 1 11 9 16 1 9 36 26
20 10 30 40 119 23 34 78 48 61 163 83 14 1 4 0 0 2 1 4 0 12 17 6 13 1 0 0 0 0 0 4 0 0 1 2 0 8 3 3 6 12 5
16 41 104 144 82 122 120 120 156 159 234 167 60 60 3 0 0 0 2 2 0 0 0 0 0 0 0 0 0 0 0 0 0 0 0 0 0 0 0 1 4 0 0
28 52 169 145 98 74 78 77 72 136 152 123 70 20 0 0 0 0 0 0 0 2 7 0 0 0 0 0 0 0 0 0 2 0 0 3 6 11 7 0 0 0 0
38 100 220 216 59 43 10 12 33 25 43 80 48 17 0 0 0 0 0 0 0 0 0 0 9 2 0 0 0 0 0 0 1 6 16 19 13 10 7 1 0 0 0
169 118 264 341 204 33 0 0 18 9 0 5 9 9 0 0 0 0 0 5 7 0 3 1 0 0 2 0 0 1 0 4 10 13 10 11 3 2 0 0 0 0 0
194 210 275 331 229 141 15 0 1 5 1 0 0 0 0 0 0 0 0 3 1 3 8 8 17 7 10 18 15 10 1 2 2 3 9 13 9 2 3 0 0 0 0
121 94 228 180 294 146 134 99 9 0 0 0 0 0 0 0 0 0 0 0 2 2 4 20 30 28 20 25 24 27 9 8 18 22 16 26 19 26 27 21 24 8 0
39 71 176 302 271 319 333 166 22 0 0 0 0 0 0 0 0 0 0 2 5 33 36 26 21 38 41 50 52 38 45 50 46 47 43 39 30 13 16 20 21 9 0
118 119 250 265 341 272 380 222 113 86 14 0 0 0 0 0 6 12 21 28 16 50 55 54 44 53 50 45 51 55 44 35 35 34 43 41 39 17 22 17 12 35 15
109 68 127 115 158 340 384 498 360 317 38 0 28 25 12 29 18 38 35 62 63 116 114 105 85 71 74 78 76 58 49 74 48 29 74 75 54 53 57 63 85 112 77
85 117 69 56 65 219 198 450 236 113 77 151 107 51 100 144 187 164 198 162 213 162 132 122 173 256 145 182 183 199 111 74 138 156 121 120 89 272 297 330 322 323 231
120 84 64 25 106 124 206 386 266 123 152 171 98 61 205 265 252 218 231 194 160 261 246 267 200 98 176 165 106 136 130 145 110 122 80 37 81 140 186 52 171 80 46
80 99 133 103 103 143 203 192 199 258 248 203 176 149 165 216 300 342 340 343 314 317 226 285 300 310 304 104 45 58 102 98 146 152 174 107 118 131 144 138 121 139 138

GFSGL_con_mucape_045.txt.gz
CAPE
0 0 0 0 0 64 324 446 702 1020 1241 1472 1511 1563 1487 1270 915 1024 888 955 877 761 616 444 287 190 99 55 28 3 3 6 4 10 22 41 28 48 29 12 30 89 210
0 2 67 186 295 472 775 949 1073 1215 1422 1552 1521 1490 1406 870 841 948 890 918 841 496 314 221 150 74 32 0 3 1 0 0 0 3 11 24 22 17 32 25 18 48 105
246 467 838 908 905 914 912 973 1136 1451 1618 1622 1825 1455 846 829 846 926 910 591 414 379 320 128 74 54 9 6 0 1 0 0 0 0 6 40 11 36 8 24 2 231 15
946 1164 1218 1189 1169 1259 1502 1788 1978 1597 1583 1237 863 888 926 850 885 540 355 201 221 223 171 70 29 0 15 17 13 11 2 0 0 2 34 17 5 6 22 6 4 2 3
1375 1469 1385 1524 1616 1828 2282 1794 1078 921 919 999 1105 1036 1009 861 534 291 54 90 135 168 203 172 133 9 28 55 22 24 7 1 8 122 19 11 9 68 0 0 1 1 25
1611 1626 1702 1732 1761 1976 1440 1119 1221 1048 1162 1025 878 708 606 290 87 37 45 87 190 211 211 181 130 46 62 48 26 31 12 1 5 16 22 6 13 39 56 0 1 2 11
1350 1395 1683 1711 1630 1434 1429 1438 1189 777 558 463 386 269 155 95 156 201 223 205 169 182 156 112 53 21 50 72 75 38 40 3 5 27 15 43 1 0 1 0 1 1 0
827 977 1462 1209 1338 1291 1057 898 799 682 253 32 11 50 87 110 93 73 43 21 18 6 40 42 21 14 18 97 84 98 52 19 1 1 1 0 0 0 1 0 0 2 1
545 903 1047 1005 1179 966 818 732 319 82 0 32 58 17 12 1 9 25 38 27 0 0 11 0 22 2 44 84 91 102 60 22 7 0 2 3 3 0 0 0 0 2 3
600 749 716 746 594 579 317 99 10 7 67 32 9 3 0 0 0 27 39 12 24 43 18 10 6 30 43 107 127 85 65 45 30 14 4 2 3 5 2 0 0 3 1
625 567 485 355 226 7 10 26 58 79 28 6 0 0 0 0 0 1 32 49 44 42 42 24 29 35 77 124 128 86 24 1 0 0 0 4 6 5 4 4 5 5 0
350 246 226 37 11 21 30 36 30 15 6 0 0 0 3 0 0 0 20 30 35 43 44 23 25 22 8 14 20 0 1 0 0 0 0 2 1 0 4 7 9 7 6
7 1 10 24 26 28 29 30 27 23 0 0 0 3 2 0 0 0 3 14 21 38 29 9 3 7 11 8 10 7 2 8 7 1 1 2 1 2 3 7 12 10 11
6 14 30 33 30 29 26 20 9 0 0 0 2 3 2 2 0 0 0 3 9 30 27 19 19 15 9 2 10 3 7 2 3 6 15 6 10 13 3 2 0 3 1
3 15 33 25 25 31 28 25 8 9 15 16 0 4 1 1 0 1 8 36 48 34 32 31 16 9 0 1 6 2 0 0 1 26 12 9 3 19 30 37 24 11 1
6 11 6 12 20 21 18 4 32 49 34 26 34 34 0 0 0 0 23 4 1 15 28 23 36 16 2 3 9 1 0 2 0 3 6 11 43 38 29 12 8 12 0
3 15 17 10 9 0 0 1 59 48 46 92 104 1 0 0 0 0 0 8 20 21 40 28 23 6 0 5 0 0 4 0 0 0 0 23 2 9 16 10 8 12 17
9 13 14 2 3 2 16 4 28 61 95 98 6 0 0 0 0 0 1 16 1 13 17 6 8 0 0 0 0 0 0 0 3 0 2 12 11 18 22 13 7 0 0
11 9 21 39 43 41 25 33 57 77 61 0 0 0 0 0 0 0 2 14 0 8 0 0 0 3 1 4 0 0 2 9 13 14 16 3 8 5 12 0 0 0 0
42 54 53 39 9 1 12 71 78 51 21 0 0 0 0 0 0 1 16 27 48 39 36 32 21 13 19 18 15 13 22 24 34 32 23 24 22 14 8 7 7 7 3
65 46 31 12 0 0 11 66 77 56 9 0 0 0 0 0 0 10 51 39 68 47 47 44 49 19 22 16 30 26 22 19 18 21 7 19 19 22 26 27 32 36 27
76 69 43 30 0 7 27 50 78 50 27 1 0 0 0 11 29 23 27 30 71 62 52 40 54 50 46 42 37 49 51 51 44 30 30 30 24 28 37 44 73 75 51
112 93 38 41 44 35 0 0 1 0 0 0 0 0 0 4 3 1 8 30 70 66 57 70 56 66 75 76 78 95 85 56 55 74 40 53 76 101 86 112 117 121 103
123 125 67 56 65 47 0 0 0 0 0 0 0 0 0 0 0 2 25 55 64 77 74 71 60 59 72 80 79 63 76 69 66 75 76 79 80 91 76 72 89 110 95
167 143 128 93 29 0 1 0 0 0 5 12 3 0 3 1 16 29 53 93 109 111 97 111 110 128 127 121 106 99 100 74 102 69 68 64 72 72 65 55 33 24 30
173 167 126 72 76 119 34 5 4 5 21 26 35 53 47 47 62 57 45 114 118 92 75 80 66 102 137 114 53 70 57 38 36 42 90 74 28 8 27 42 56 38 18

GFSGL_con_mucape_048.txt.gz
CAPE
0 42 14 0 0 0 10 75 13 136 374 630 994 1497 1719 1634 1477 1213 908 958 739 741 695 596 449 375 305 176 82 70 38 0 0 1 17 13 25 63 9 28 38 12 200
3 238 21 0 0 0 0 15 178 407 708 934 1375 1669 1650 1493 1362 947 905 945 771 804 642 503 350 156 75 34 21 1 0 0 0 0 52 60 26 40 5 34 28 37 64
291 488 0 0 1 28 158 308 468 674 1021 1269 1589 1633 1233 1735 1094 830 785 726 851 815 531 176 104 27 9 0 0 0 0 0 0 0 34 2 18 32 45 25 54 16 9
897 351 51 159 231 361 551 821 1042 1138 1254 1437 1596 1402 1230 1112 831 794 849 891 543 328 207 123 18 0 20 0 0 1 0 0 1 5 4 59 13 12 12 21 13 2 6
854 517 570 634 643 785 974 1050 1112 1295 1533 1667 1365 1505 927 858 860 934 530 215 209 163 203 99 25 24 0 0 6 5 0 0 14 15 19 16 5 8 16 1 1 1 1
909 962 994 1027 1077 1197 1328 1756 2007 1844 1538 1355 994 1038 1019 892 886 360 155 50 41 66 112 149 148 120 3 1 23 0 0 1 4 16 23 18 7 0 3 0 0 0 0
1157 1139 1188 1317 1817 1671 1898 1810 1348 1092 1082 1165 1195 1165 991 802 326 55 6 11 67 156 173 206 216 116 46 33 5 4 3 4 1 14 32 29 29 7 0 0 1 1 1
1153 1180 1435 1658 1607 1771 1390 1124 1097 1184 1265 1004 802 599 251 48 64 71 100 139 63 19 82 111 89 44 20 50 28 44 34 8 6 14 18 8 4 5 1 0 0 0 4
1206 1320 1417 1496 1439 1187 1170 1107 848 639 534 291 163 74 55 98 117 121 62 2 0 0 1 3 7 23 24 50 73 67 47 28 17 6 4 8 2 0 0 0 0 2 8
808 814 949 975 919 892 830 815 449 385 448 1 26 32 18 3 19 1 0 6 0 0 0 0 7 20 19 58 77 82 57 41 32 13 3 4 5 6 1 0 2 0 3
667 691 662 730 726 676 677 510 607 263 16 13 4 2 0 0 0 0 8 1 4 21 24 16 13 44 28 46 67 71 40 40 42 27 1 21 3 5 4 0 0 2 4
499 592 529 470 559 551 459 450 333 6 20 4 0 0 0 0 0 0 7 32 34 33 49 33 33 35 50 62 61 41 20 11 6 0 2 1 4 2 2 6 5 5 6
111 412 255 428 263 200 10 3 36 13 7 0 0 0 1 0 0 0 3 14 28 50 44 20 10 6 1 3 2 1 3 2 1 0 3 4 4 0 6 5 14 8 5
21 200 357 224 6 8 18 31 17 6 0 0 0 1 2 1 0 0 0 5 13 31 36 6 5 4 8 6 12 5 4 3 4 1 0 1 0 0 1 4 1 9 5
164 128 4 10 11 5 17 25 15 5 9 0 0 1 2 1 1 0 0 1 19 31 32 30 21 13 11 13 3 5 2 0 0 4 12 2 5 5 0 0 6 3 0
12 7 12 22 26 25 23 21 22 29 23 7 9 1 0 0 0 0 0 10 5 31 14 17 19 25 14 5 6 0 0 0 5 2 1 8 10 10 36 42 29 20 13
8 6 13 28 32 18 16 8 15 40 30 27 27 0 0 0 0 17 17 2 3 21 23 4 26 29 7 3 5 5 0 0 2 2 9 11 2 45 34 5 6 24 0
5 2 2 23 14 10 19 42 54 44 49 92 1 0 0 0 0 0 19 34 19 20 2 12 20 19 2 2 0 0 0 0 0 0 0 2 24 15 9 21 8 14 16
5 12 12 17 19 17 20 51 64 41 93 1 0 0 0 0 0 4 10 6 10 18 13 17 16 0 0 0 0 0 0 0 0 0 12 18 10 33 15 13 1 0 0
44 28 23 23 18 1 4 15 28 106 18 0 0 0 0 0 0 4 15 15 3 3 4 8 11 8 9 0 0 7 3 9 17 11 10 4 7 3 1 0 0 0 0
22 24 38 55 45 3 5 15 36 24 2 0 0 0 0 7 24 23 29 46 84 52 22 20 11 32 23 8 14 28 26 32 30 12 16 12 14 8 13 1 3 13 12
64 28 7 0 0 12 39 31 35 19 0 0 0 0 0 16 37 38 47 73 69 58 62 46 32 18 14 14 17 21 20 25 15 6 4 22 21 19 25 28 31 56 108
40 33 0 0 0 18 37 70 32 10 0 0 0 0 0 8 9 15 27 63 62 65 65 60 69 69 62 57 46 50 56 52 65 70 55 43 49 55 91 101 112 134 127
82 49 3 0 0 0 5 21 54 0 0 0 0 0 1 37 2 10 38 62 54 59 67 80 65 68 71 67 68 83 68 58 82 90 86 68 55 45 38 31 44 41 42
69 59 40 30 2 0 0 3 0 0 0 0 0 0 0 0 5 34 68 73 79 80 72 65 59 59 83 66 72 97 79 82 59 54 55 81 69 60 45 67 44 27 32
59 58 57 12 0 0 0 0 0 0 2 0 0 0 3 10 33 48 61 78 65 64 64 85 83 41 104 71 31 65 53 26 43 29 19 26 18 27 33 28 26 19 38